Simultaneous Nadir Overpasses (SNOs) Predictions

Prediction of SNOs between AQUA and METOP-B Satellite Orbit:

Table of predicted SNOs for the next 14.0 days since TLE Epoch: 3/21/2014
Index Date (AQUA) Time (AQUA) Lat,Lon (AQUA) SZA (AQUA ) Date (METOP-B) Time (METOP-B) Lat,Lon (METOP-B) SZA (METOP-B ) Distance(km) Time Diff (sec)
1 03/22/2014 21:17:33 73.06,-143.44 72.19 03/22/2014 21:16:27 73.03,-146.22 72.29 90.35 66
2 03/22/2014 22:07:12 -73.77, 22.72 107.07 03/22/2014 22:06:54 -73.78, 22.79 107.05 2.74 18
3 03/22/2014 22:56:41 73.84,-169.80 73.00 03/22/2014 22:57:33 73.81,-169.80 72.96 2.85 52
4 03/25/2014 16:51:53 73.26, -77.41 71.29 03/25/2014 16:50:45 73.20, -79.46 71.32 66.28 68
5 03/25/2014 17:41:28 -73.75, 89.19 108.20 03/25/2014 17:41:16 -73.75, 89.13 108.20 1.79 12
6 03/25/2014 18:30:57 73.83,-103.34 71.87 03/25/2014 18:31:54 73.83,-103.36 71.86 0.72 57
7 03/28/2014 12:26:13 73.48, -11.43 70.42 03/28/2014 12:25:02 73.45, -12.49 70.43 33.64 71
8 03/28/2014 13:15:44 -73.76, 155.60 109.30 03/28/2014 13:15:38 -73.76, 155.56 109.30 1.38 6
9 03/28/2014 14:05:13 73.84, -36.94 70.77 03/28/2014 14:06:16 73.83, -36.95 70.75 1.70 63
10 03/31/2014 08:00:32 73.73, 54.48 69.58 03/31/2014 07:59:19 73.69, 54.47 69.55 3.86 73
11 03/31/2014 08:49:59 -73.80,-138.03 110.37 03/31/2014 08:50:00 -73.76,-138.04 110.40 3.76 1
12 03/31/2014 09:39:27 73.83, 29.54 69.66 03/31/2014 09:40:38 73.82, 29.44 69.64 3.26 71
13 04/03/2014 03:34:44 73.73, 120.91 68.49 04/03/2014 03:33:39 73.72, 120.96 68.49 1.96 65
14 04/03/2014 04:24:11 -73.80, -71.59 111.45 04/03/2014 04:24:20 -73.80, -71.54 111.46 1.81 9




NCC Satellite Simultaneous Nadir Overpasses (SNOs) Prediction Service
